Simultaneous Nadir Overpasses (SNOs) Predictions

Prediction of SNOs between GOES-17 and LANDSAT-8 Satellite Orbit:

Table of predicted SNOs for the next 14.0 days since TLE Epoch: 6/22/2024
Index Date Time (GOES-17) GOES-17 Lat,Lon LANDSAT-8 Lat,Lon Distance(km) Time Diff (sec)
1 06/22/2024 05:15:02 -0.00,-104.70 -0.19,-105.52 94.10 80
2 06/24/2024 05:00:12 -0.01,-104.69 0.44,-102.57 241.53 80
3 06/24/2024 17:21:28 0.01,-104.71 0.65,-107.72 342.76 80
4 06/26/2024 17:09:18 0.00,-104.71 0.00,-104.77 6.98 80
5 06/28/2024 16:59:47 -0.00,-104.71 -0.60,-101.81 329.41 80
6 06/29/2024 05:21:11 -0.00,-104.69 -0.52,-107.00 262.74 80
7 07/01/2024 05:06:20 -0.00,-104.69 0.11,-104.04 73.81 80
8 07/03/2024 04:54:09 0.00,-104.69 0.75,-101.08 410.04 80
9 07/03/2024 17:15:25 0.00,-104.70 0.32,-106.24 174.29 80
10 07/05/2024 17:03:13 -0.00,-104.70 -0.28,-103.27 162.06 80
